Total_Precipitation_Accumulation
1.70 1.69 1.60 1.61 1.71 1.75 1.83 1.90 1.84 1.69 1.65 1.54 1.21 0.98 1.01 1.08 1.27 1.14 1.05 0.98 0.89 0.80 0.70 0.71 0.75 0.82 0.91 1.01 1.17 1.30 1.33 1.34 1.35 1.29 1.29 1.35 1.36 1.38
1.47 1.50 1.48 1.50 1.61 1.65 1.71 1.85 1.95 1.94 1.77 1.61 1.42 1.14 1.13 1.03 1.14 1.13 1.08 1.02 0.87 0.76 0.66 0.62 0.64 0.69 0.77 0.83 0.91 1.03 1.08 1.07 1.08 1.12 1.12 1.11 1.11 1.14
1.17 1.20 1.26 1.37 1.52 1.57 1.61 1.68 1.88 2.04 1.93 1.83 1.70 1.56 1.42 1.26 1.11 1.09 1.09 1.03 0.86 0.73 0.61 0.57 0.60 0.63 0.66 0.73 0.80 0.89 0.95 0.99 1.00 1.03 1.06 1.07 1.06 1.05
1.07 1.17 1.23 1.35 1.47 1.45 1.54 1.62 1.81 2.03 2.10 2.23 2.27 2.03 1.72 1.49 1.37 1.22 0.98 0.88 0.88 0.76 0.61 0.55 0.53 0.56 0.59 0.64 0.70 0.82 0.92 0.96 0.98 1.00 1.00 1.00 1.04 1.07
1.08 1.17 1.17 1.21 1.30 1.32 1.44 1.57 1.72 1.86 2.04 2.15 2.28 2.10 1.91 1.62 1.61 1.42 1.17 1.08 0.87 0.82 0.71 0.60 0.54 0.54 0.55 0.60 0.66 0.72 0.80 0.90 0.93 1.02 1.08 1.06 1.06 1.09
1.03 1.02 0.99 1.01 1.10 1.19 1.25 1.41 1.56 1.70 1.82 1.87 2.01 2.08 2.10 2.06 1.99 1.76 1.58 1.38 1.12 0.89 0.84 0.67 0.60 0.57 0.55 0.55 0.58 0.66 0.77 0.88 0.93 0.98 1.05 1.11 1.15 1.18
0.96 0.89 0.78 0.78 0.82 0.86 0.93 1.17 1.34 1.48 1.63 1.74 1.87 2.05 2.16 2.29 2.14 2.01 1.88 1.76 1.50 1.29 1.27 0.99 0.84 0.70 0.59 0.57 0.58 0.59 0.66 0.80 0.90 0.98 1.05 1.08 1.14 1.23
0.83 0.84 0.76 0.65 0.61 0.63 0.65 0.77 0.96 1.12 1.36 1.62 1.81 2.02 2.11 2.08 2.19 2.19 2.12 1.98 1.85 1.66 1.62 1.58 1.41 1.23 0.98 0.73 0.67 0.59 0.56 0.65 0.81 0.91 1.02 1.11 1.16 1.22
0.69 0.75 0.66 0.59 0.57 0.54 0.59 0.65 0.71 0.78 0.92 1.23 1.52 1.64 1.67 1.67 1.91 2.10 2.11 2.03 2.00 1.88 1.88 1.95 1.84 1.58 1.22 1.01 0.88 0.71 0.62 0.59 0.66 0.77 0.84 0.95 1.07 1.17
0.62 0.66 0.69 0.69 0.62 0.60 0.60 0.65 0.63 0.63 0.66 0.73 0.89 1.04 1.22 1.37 1.59 1.89 2.12 2.11 2.12 2.09 2.02 2.15 2.06 1.90 1.54 1.19 0.98 0.76 0.68 0.66 0.69 0.74 0.79 0.83 0.90 1.01
0.60 0.61 0.64 0.69 0.63 0.52 0.54 0.60 0.63 0.65 0.57 0.59 0.63 0.75 0.90 1.06 1.24 1.49 1.76 2.03 2.29 2.33 2.11 2.14 2.12 2.12 2.08 1.67 1.24 0.99 0.78 0.71 0.69 0.70 0.74 0.76 0.79 0.87
0.74 0.72 0.58 0.54 0.53 0.41 0.44 0.55 0.56 0.57 0.53 0.56 0.58 0.61 0.67 0.81 0.94 1.14 1.34 1.58 1.84 2.02 2.00 2.05 2.18 2.43 2.56 2.17 1.62 1.18 0.95 0.89 0.80 0.72 0.71 0.71 0.74 0.69
0.75 0.77 0.69 0.50 0.41 0.36 0.35 0.44 0.49 0.48 0.55 0.62 0.69 0.71 0.72 0.77 0.83 0.94 1.16 1.29 1.36 1.34 1.38 1.65 1.86 2.10 2.39 2.37 2.14 1.74 1.37 1.11 0.92 0.82 0.80 0.81 0.82 0.77
0.81 0.80 0.67 0.48 0.40 0.37 0.33 0.36 0.35 0.34 0.43 0.55 0.64 0.70 0.72 0.73 0.80 0.89 1.03 1.19 1.31 1.26 1.22 1.36 1.55 1.73 1.78 1.82 1.89 1.93 1.88 1.67 1.38 1.14 0.98 1.02 0.99 1.02
0.69 0.73 0.65 0.46 0.40 0.42 0.41 0.35 0.31 0.31 0.40 0.47 0.54 0.62 0.65 0.69 0.80 0.94 1.11 1.19 1.22 1.21 1.14 1.20 1.34 1.49 1.53 1.53 1.54 1.61 1.71 1.70 1.61 1.51 1.43 1.30 1.14 1.08
0.58 0.61 0.64 0.57 0.46 0.49 0.51 0.43 0.37 0.41 0.45 0.45 0.50 0.57 0.63 0.71 0.82 0.89 1.00 1.11 1.20 1.19 1.14 1.17 1.25 1.34 1.37 1.37 1.32 1.31 1.39 1.53 1.63 1.69 1.70 1.63 1.48 1.37
0.63 0.72 0.73 0.78 0.70 0.66 0.68 0.63 0.57 0.60 0.58 0.56 0.56 0.59 0.65 0.70 0.76 0.85 0.94 0.99 1.06 1.11 1.11 1.14 1.19 1.25 1.25 1.23 1.24 1.19 1.18 1.22 1.38 1.61 1.75 1.78 1.63 1.50
0.63 0.76 0.86 0.89 0.87 0.86 0.85 0.82 0.80 0.75 0.72 0.73 0.69 0.66 0.68 0.72 0.74 0.79 0.87 0.90 0.90 0.96 1.05 1.05 1.08 1.18 1.26 1.22 1.06 0.98 0.98 1.03 1.08 1.21 1.40 1.58 1.56 1.46
0.66 0.77 0.89 0.94 0.95 0.95 0.90 0.87 0.89 0.82 0.82 0.83 0.80 0.78 0.78 0.80 0.78 0.79 0.85 0.90 0.88 0.86 0.92 1.00 0.96 0.97 1.02 1.05 0.95 0.74 0.81 0.90 0.92 0.94 1.01 1.14 1.28 1.26
0.73 0.85 0.96 0.94 0.98 1.01 0.95 0.91 0.92 0.88 0.85 0.83 0.81 0.79 0.79 0.84 0.85 0.81 0.80 0.83 0.85 0.85 0.89 0.91 0.89 0.81 0.80 0.85 0.85 0.75 0.61 0.77 0.89 0.92 0.91 0.93 0.97 1.07
0.82 0.92 0.94 0.93 0.96 0.94 0.89 0.87 0.91 0.89 0.85 0.83 0.80 0.79 0.78 0.83 0.85 0.84 0.80 0.84 0.83 0.79 0.79 0.82 0.81 0.80 0.85 0.93 0.93 0.87 0.75 0.66 0.77 0.83 0.88 0.94 0.93 0.91
0.78 0.83 0.82 0.80 0.82 0.83 0.84 0.85 0.91 0.90 0.88 0.86 0.79 0.76 0.76 0.81 0.83 0.83 0.81 0.79 0.80 0.77 0.75 0.80 0.83 0.84 0.87 0.90 0.91 0.90 0.87 0.81 0.76 0.80 0.84 0.86 0.81 0.77
0.70 0.75 0.77 0.74 0.71 0.74 0.77 0.79 0.84 0.86 0.81 0.76 0.71 0.70 0.70 0.76 0.77 0.77 0.78 0.75 0.76 0.79 0.84 0.86 0.89 0.89 0.89 0.93 0.99 1.01 0.94 0.90 0.88 0.84 0.74 0.68 0.63 0.59